7 * 24
多渠道服务支持
STARLINK-34808是美国于2025年9月25日发射的Starlink星链互联网卫星,隶属于太空探索技术公司(SpaceX)。该卫星是Starlink星座组网进程中的一颗,星链项目旨在为全球提供高速低延迟互联网接入服务,这颗卫星的发射进一步推进了星座的部署规模。
美国
(US)
| 数据来源 | 国际轨道数据 |
| 星历时间: | 2026-09-12T12:51:27+0800 21小时前 查看轨道信息 |
| 半长轴: | 6840.816km |
| 偏心率: | 0.0000998 |
| 轨道倾角: | 53.160° |
| 近地点辐角 | 113.673° |
| 升交点赤经 | 184.847° |
| 平近点角 | 246.438° |
| 近地点: | 461.996km |
| 远地点: | 463.362km |
| 周期: | 93.847分钟 |
| 每日圈数: | 15.344084 |